Voltar ao catálogo

STARLINK-11306

AtivoComunicaçõesVLEO
NORAD 61254·PAYLOAD·🇺🇸 United States

Lançado Sep 25, 2024 de Vandenberg Space Force Base

Loading…

Próximas Passagens (próximas 24 horas)

TLE

AtualizadoSource: CelesTrak SupGP

Época: Sep 14, 2026, 22:30 UTC

1 61254C 24175M   26257.93798611  .00019594  00000+0  16134-3 0  2575
2 61254  53.1573 203.4698 0001216  96.3377  68.8590 15.69709482    19

Acompanhe STARLINK-11306 em tempo real com AllMySat

Download on the App Store